Weather History for KAFW - January, 2014

Change the Weather History Date:

Thursday, January 30, 2014

  Actual Average Record
Temperature  
Mean Temperature 46 °F -  
Max Temperature 61 °F 55 °F 66 °F (1998)
Min Temperature 30 °F 33 °F 21 °F (2000)
Degree Days  
Heating Degree Days 20    
Moisture  
Dew Point 29 °F    
Average Humidity 54    
Maximum Humidity 77    
Minimum Humidity 41    
Precipitation  
Precipitation 0.00 in - - ()
Sea Level Pressure  
Sea Level Pressure 29.93 in    
Wind  
Wind Speed 15 mph (South)    
Max Wind Speed 25 mph    
Max Gust Speed 34 mph    
Visibility 10 miles    
Events      
Averages and records for this station are not official NWS values.
T = Trace of Precipitation, MM = Missing Value Source: NWS Daily Summary

Daily Weather History Graph

Daily Weather History Graph

Search for Another Location

Airport or City:

Trip Planner

Search our weather history database for the weather conditions in past years. The results will help you decide how hot, cold, wet, or windy it might be!

Date:

Astronomy

Jan. 30, 2014 Rise Set
Actual Time 7:25 AM CST 5:59 PM CST
Civil Twilight 6:59 AM CST 6:25 PM CST
Nautical Twilight 6:30 AM CST 6:55 PM CST
Astronomical Twilight 6:00 AM CST 7:24 PM CST
Moon 6:54 AM CST (1/30) 6:09 PM CST (1/30)
Length of Visible Light 11h 26m
Length of Day
10h 34m
Waning Crescent, 0% of the Moon is Illuminated
Jan 30
Waning Crescent
Jan 30
New
Feb 6
First Quarter
Feb 14
Full
Feb 22
Last Quarter

Hourly Weather History & Observations

Time (CST) Temp. Windchill Dew Point Humidity Pressure Visibility Wind Dir Wind Speed Gust Speed Precip Events Conditions
12:53 AM 30.9 °F 22.8 °F 12.9 °F 47% 30.16 in 10.0 mi South 9.2 mph - N/A   Clear
1:53 AM 30.9 °F 21.7 °F 12.9 °F 47% 30.12 in 10.0 mi South 11.5 mph 18.4 mph N/A   Clear
2:53 AM 33.1 °F 22.2 °F 14.0 °F 46% 30.09 in 10.0 mi South 17.3 mph 26.5 mph N/A   Clear
3:53 AM 32.0 °F 21.6 °F 15.1 °F 50% 30.07 in 10.0 mi South 15.0 mph 23.0 mph N/A   Scattered Clouds
4:53 AM 32.0 °F 20.8 °F 17.1 °F 54% 30.04 in 10.0 mi South 17.3 mph 25.3 mph N/A   Partly Cloudy
5:53 AM 32.0 °F 21.2 °F 16.0 °F 52% 30.01 in 10.0 mi South 16.1 mph 26.5 mph N/A   Partly Cloudy
6:53 AM 32.0 °F 21.6 °F 14.0 °F 48% 30.01 in 10.0 mi South 15.0 mph 24.2 mph N/A   Mostly Cloudy
7:53 AM 32.0 °F 22.1 °F 18.0 °F 56% 30.01 in 10.0 mi South 13.8 mph 24.2 mph N/A   Mostly Cloudy
8:53 AM 35.1 °F 23.3 °F 21.9 °F 59% 30.01 in 10.0 mi South 23.0 mph 28.8 mph N/A   Mostly Cloudy
9:35 AM 37.4 °F 27.8 °F 24.8 °F 60% 29.95 in 10.0 mi South 17.3 mph 29.9 mph N/A   Overcast
9:53 AM 39.9 °F 31.4 °F 26.1 °F 58% 29.98 in 10.0 mi South 16.1 mph 34.5 mph N/A   Mostly Cloudy
10:25 AM 42.8 °F 33.5 °F 28.4 °F 57% 29.95 in 10.0 mi South 23.0 mph 29.9 mph N/A   Mostly Cloudy
10:53 AM 45.0 °F 36.6 °F 28.9 °F 53% 29.97 in 10.0 mi South 21.9 mph 33.4 mph N/A   Mostly Cloudy
11:53 AM 50.0 °F - 32.0 °F 50% 29.92 in 10.0 mi South 18.4 mph 29.9 mph N/A   Mostly Cloudy
12:53 PM 55.0 °F - 34.0 °F 45% 29.86 in 10.0 mi SSW 20.7 mph 34.5 mph N/A   Mostly Cloudy
1:53 PM 57.9 °F - 36.0 °F 44% 29.81 in 10.0 mi South 25.3 mph 34.5 mph N/A   Mostly Cloudy
2:53 PM 61.0 °F - 37.0 °F 41% 29.79 in 10.0 mi South 20.7 mph 31.1 mph N/A   Mostly Cloudy
3:53 PM 61.0 °F - 37.9 °F 42% 29.81 in 10.0 mi South 16.1 mph 24.2 mph N/A   Overcast
4:53 PM 61.0 °F - 39.0 °F 44% 29.80 in 10.0 mi South 15.0 mph 24.2 mph N/A   Overcast
5:53 PM 57.0 °F - 39.0 °F 51% 29.80 in 10.0 mi South 15.0 mph - N/A   Overcast
6:53 PM 55.9 °F - 39.9 °F 55% 29.82 in 10.0 mi South 11.5 mph - N/A   Overcast
7:53 PM 53.1 °F - 41.0 °F 64% 29.84 in 10.0 mi SSE 12.7 mph - N/A   Overcast
8:53 PM 52.0 °F - 42.1 °F 69% 29.84 in 10.0 mi South 9.2 mph - N/A   Mostly Cloudy
9:53 PM 53.1 °F - 42.1 °F 66% 29.83 in 10.0 mi South 10.4 mph - N/A   Mostly Cloudy
10:53 PM 50.0 °F - 42.1 °F 74% 29.82 in 10.0 mi SSE 11.5 mph - N/A   Mostly Cloudy
11:53 PM 50.0 °F - 43.0 °F 77% 29.82 in 10.0 mi South 10.4 mph - N/A   Partly Cloudy